Home > Weather > Gatineau > Past weeks

Flag for Canada Past Weather in Gatineau, Quebec, Canada — Yesterday and Last 2 Weeks

Now
64 °F

Passing clouds.


Feels Like: 64 °F
Forecast: 67 / 84 °F
Wind: 7 mph from West

Location: Ottawa Int'L. Ont.

Current Time: Jul 26, 2016 at 6:31:56 AM

Latest Report: Jul 26, 2016 at 6:00 AM


Visibility: 15 mi

Pressure: 29.82 "Hg

Humidity: 88%

Dew Point: 61 °F

Location of GatineauLocation

Past Weather in Gatineau — Graph

°F

Gatineau Temperature Yesterday

Maximum temperature yesterday: 81 °F (at 4:00 PM)
Minimum temperature yesterday: 64 °F (at 8:00 AM)
Average temperature yesterday: 72 °F

High & Low Weather Summary for the Past Weeks

 TemperatureHumidityPressure
High93 °F (Jul 22, 5:00 PM)100% (Jul 11, 5:00 AM)30.23 "Hg (Jul 11, 5:00 AM)
Low52 °F (Jul 19, 6:00 AM)34% (Jul 22, 5:00 PM)29.64 "Hg (Jul 14, 6:00 PM)
Average72 °F68%29.93 "Hg
* Reported Jul 11 5:00 AM — Jul 26 5:00 AM, Gatineau, Weather by CustomWeather, © 2016

Note: Actual official high and low records may vary slightly from our data, if they occured in-between our weather recording intervals... More about our weather records

Advertising

Gatineau Weather History for the Previous 24 Hours

Scroll right to see more
 ConditionsComfort  
Time TempWeatherWind HumidityBarometerVisibility
5:00 AM
Tue, Jul 26
66 °FPassing clouds.7 mph83%29.80 "Hg15 mi
4:00 AM64 °FClear.10 mph88%29.78 "Hg15 mi
3:00 AM66 °FPassing clouds.9 mph83%29.77 "Hg15 mi
2:00 AM70 °FPassing clouds.9 mph73%29.76 "Hg15 mi
1:00 AM70 °FPassing clouds.7 mph73%29.76 "Hg15 mi
12:00 AM73 °FPassing clouds.10 mph65%29.76 "Hg15 mi
11:00 PM
Mon, Jul 25
72 °FPassing clouds.9 mph73%29.75 "Hg15 mi
10:00 PM72 °FPassing clouds.7 mph88%29.75 "Hg15 mi
9:00 PM73 °FScattered clouds.8 mph83%29.74 "Hg15 mi
8:00 PM75 °FScattered clouds.6 mph74%29.71 "Hg15 mi
7:00 PM79 °FPartly sunny.8 mph70%29.70 "Hg15 mi
6:00 PM79 °FPartly sunny.9 mph79%29.70 "Hg15 mi
5:00 PM81 °FPartly sunny.13 mph74%29.72 "Hg15 mi
4:00 PM81 °FOvercast.14 mph74%29.74 "Hg15 mi
3:00 PM79 °FMostly cloudy.14 mph74%29.73 "Hg15 mi
2:00 PM77 °FOvercast.13 mph79%29.74 "Hg15 mi
1:00 PM77 °FMostly cloudy.8 mph83%29.77 "Hg15 mi
12:00 PM73 °FMostly cloudy.7 mph89%29.79 "Hg15 mi
11:00 AM72 °FOvercast.9 mph88%29.79 "Hg15 mi
10:00 AM70 °FMostly cloudy.7 mph83%29.82 "Hg15 mi
9:00 AM66 °FLight rain. More clouds than sun.7 mph94%29.83 "Hg15 mi
8:00 AM64 °FThunderstorms. Overcast.6 mph94%29.84 "Hg15 mi
7:01 AM66 °FSprinkles. Partly sunny.No wind78%29.87 "Hg15 mi
6:00 AM66 °FMostly cloudy.6 mph78%29.86 "Hg15 mi
Weather by CustomWeather, © 2016

See weather overviewHow to use our weather pages